KB6CYS Weather Reports


Display with metric or nautical units.
time (UTC)temp
F
wind
direction
speed
MPH
gust
MPH
rain 1hr
in
rain 24hr
in
rain mn
in
humidity
%
barometer
mb
20260905093503 66 92 2.0 3.0 0.00 0.00 0.00 1012.6
20260905093003 66 85 2.0 4.0 0.00 0.00 0.00 1012.6
20260905092524 66 87 2.0 4.0 0.00 0.00 0.00 1012.6
20260905092003 66 92 1.0 3.0 0.00 0.00 0.00 1012.6
20260905091524 66 91 2.0 3.0 0.00 0.00 0.00 1012.6
20260905091003 66 86 2.0 3.0 0.00 0.00 0.00 1012.2
20260905090502 66 87 1.0 3.0 0.00 0.00 0.00 1012.6
20260905090003 66 91 2.0 3.0 0.00 0.00 0.00 1012.6
20260905085502 66 92 2.0 3.0 0.00 0.00 0.00 1012.6
20260905085002 66 84 1.0 3.0 0.00 0.00 0.00 1012.6
20260905084525 67 85 2.0 3.0 0.00 0.00 0.00 1013.2
20260905084003 67 83 2.0 3.0 0.00 0.00 0.00 1012.9
20260905083502 67 76 2.0 3.0 0.00 0.00 0.00 1012.6
20260905083002 67 360 1.0 2.0 0.00 0.00 0.00 1012.9
20260905082502 67 360 1.0 2.0 0.00 0.00 0.00 1012.9
20260905082002 67 360 0.0 2.0 0.00 0.00 0.00 1013.2
20260905081502 67 360 0.0 1.0 0.00 0.00 0.00 1013.2
20260905081002 67 360 0.0 0.0 0.00 0.00 0.00 1013.2
20260905080502 67 360 0.0 0.0 0.00 0.00 0.00 1013.2
20260905080002 67 360 0.0 2.0 0.00 0.00 0.00 1013.2
20260905075502 67 360 0.0 2.0 0.00 0.00 0.00 1012.9
20260905075003 67 360 1.0 1.0 0.00 0.00 0.00 1013.2
20260905074502 67 360 1.0 1.0 0.00 0.00 0.00 1012.9
20260905074002 67 360 1.0 2.0 0.00 0.00 0.00 1013.2
20260905073502 67 68 1.0 2.0 0.00 0.00 0.00 1013.2
20260905073024 67 89 2.0 2.0 0.00 0.00 0.00 1013.2
20260905072524 67 90 0.0 1.0 0.00 0.00 0.00 1013.2
20260905072003 68 113 1.0 1.0 0.00 0.00 0.00 1012.9
20260905071502 68 124 1.0 1.0 0.00 0.00 0.00 1012.6
20260905071003 68 225 0.0 0.0 0.00 0.00 0.00 1013.2
20260905070503 68 315 0.0 0.0 0.00 0.00 0.00 1013.2
20260905070003 68 315 0.0 1.0 0.00 0.00 0.00 1012.9
20260905065503 68 289 0.0 2.0 0.00 0.00 0.00 1012.9
20260905065003 68 315 1.0 2.0 0.00 0.00 0.00 1012.9
20260905064502 68 293 0.0 2.0 0.00 0.00 0.00 1012.9
20260905064003 68 313 1.0 3.0 0.00 0.00 0.00 1012.6
20260905063503 69 291 2.0 3.0 0.00 0.00 0.00 1012.9
20260905063002 68 291 2.0 3.0 0.00 0.00 0.00 1012.9
20260905062503 69 258 1.0 2.0 0.00 0.00 0.00 1012.9
20260905062024 69 245 1.0 2.0 0.00 0.00 0.00 1012.6
20260905061503 69 248 0.0 0.0 0.00 0.00 0.00 1012.2
20260905061024 69 293 0.0 0.0 0.00 0.00 0.00 1012.6
20260905060502 69 293 0.0 1.0 0.00 0.00 0.00 1012.9
20260905060004 69 271 0.0 1.0 0.00 0.00 0.00 1012.6
20260905055502 69 270 0.0 2.0 0.00 0.00 0.00 1012.6
20260905055002 69 265 0.0 2.0 0.00 0.00 0.00 1012.6
20260905054503 69 249 1.0 2.0 0.00 0.00 0.00 1012.6
20260905054003 69 293 1.0 3.0 0.00 0.00 0.00 1012.2
20260905053502 69 273 1.0 3.0 0.00 0.00 0.00 1011.9
20260905053002 69 292 1.0 3.0 0.00 0.00 0.00 1011.9
20260905052523 69 282 1.0 4.0 0.00 0.00 0.00 1011.9
20260905052024 69 284 3.0 4.0 0.00 0.00 0.00 1011.9
20260905051502 69 288 2.0 5.0 0.00 0.00 0.00 1011.9
20260905051002 69 285 3.0 5.0 0.00 0.00 0.00 1012.2
20260905050502 69 294 2.0 5.0 0.00 0.00 0.00 1012.6
20260905050003 69 286 2.0 4.0 0.00 0.00 0.00 1012.2
20260905045502 69 298 2.0 4.0 0.00 0.00 0.00 1012.2
20260905045003 69 289 3.0 4.0 0.00 0.00 0.00 1011.5
20260905044504 69 283 2.0 3.0 0.00 0.00 0.00 1011.9
20260905044002 69 269 2.0 5.0 0.00 0.00 0.00 1011.9
20260905043502 69 266 3.0 5.0 0.00 0.00 0.00 1011.9
20260905043024 69 241 4.0 5.0 0.00 0.00 0.00 1011.9
20260905042524 70 272 3.0 5.0 0.00 0.00 0.00 1012.2
20260905042003 70 263 3.0 5.0 0.00 0.00 0.00 1012.2
20260905041503 70 251 2.0 5.0 0.00 0.00 0.00 1011.9
20260905041002 70 265 2.0 5.0 0.00 0.00 0.00 1011.9
20260905040502 70 251 3.0 5.0 0.00 0.00 0.00 1011.9
20260905040003 70 246 4.0 5.0 0.00 0.00 0.00 1011.5
20260905035524 70 264 3.0 5.0 0.00 0.00 0.00 1011.5
20260905035002 70 271 2.0 7.0 0.00 0.00 0.00 1011.5
20260905034502 70 293 2.0 7.0 0.00 0.00 0.00 1011.5
20260905034025 71 286 3.0 5.0 0.00 0.00 0.00 1011.2
20260905033502 71 266 1.0 2.0 0.00 0.00 0.00 1011.2
20260905033003 71 226 2.0 3.0 0.00 0.00 0.00 1011.2
20260905032503 71 146 2.0 3.0 0.00 0.00 0.00 1011.2
20260905032003 71 177 1.0 4.0 0.00 0.00 0.00 1011.2
20260905031523 71 170 2.0 4.0 0.00 0.00 0.00 1011.5
20260905031002 71 160 2.0 5.0 0.00 0.00 0.00 1011.2
20260905030504 71 177 3.0 5.0 0.00 0.00 0.00 1010.9
20260905030002 71 166 2.0 4.0 0.00 0.00 0.00 1010.9
20260905025503 71 183 3.0 5.0 0.00 0.00 0.00 1010.5
20260905025025 71 197 2.0 5.0 0.00 0.00 0.00 1010.5
20260905024502 71 198 2.0 6.0 0.00 0.00 0.00 1010.5
20260905024003 72 171 3.0 6.0 0.00 0.00 0.00 1010.5
20260905023502 71 200 2.0 7.0 0.00 0.00 0.00 1010.5
20260905023024 72 168 3.0 7.0 0.00 0.00 0.00 1010.5
20260905022502 72 180 4.0 7.0 0.00 0.00 0.00 1010.5
20260905022003 72 176 2.0 6.0 0.00 0.00 0.00 1010.5
20260905021503 73 175 2.0 5.0 0.00 0.00 0.00 1010.9
20260905021003 74 161 4.0 9.0 0.00 0.00 0.00 1010.9
20260905020502 74 176 4.0 9.0 0.00 0.00 0.00 1010.9
20260905020004 75 164 3.0 7.0 0.00 0.00 0.00 1010.5
20260905015504 75 159 4.0 7.0 0.00 0.00 0.00 1010.5
20260905015002 76 188 3.0 7.0 0.00 0.00 0.00 1010.9
20260905014503 76 191 3.0 7.0 0.00 0.00 0.00 1011.2
20260905014002 77 177 3.0 7.0 0.00 0.00 0.00 1010.9
20260905013503 77 222 4.0 6.0 0.00 0.00 0.00 1010.9
20260905013002 77 188 3.0 6.0 0.00 0.00 0.00 1010.9
20260905012503 77 196 3.0 6.0 0.00 0.00 0.00 1011.2
20260905012003 77 160 4.0 7.0 0.00 0.00 0.00 1011.5
20260905011503 77 221 3.0 7.0 0.00 0.00 0.00 1011.2
20260905011003 77 182 5.0 8.0 0.00 0.00 0.00 1011.5
20260905010502 77 171 3.0 8.0 0.00 0.00 0.00 1011.2
20260905010004 77 260 4.0 10.0 0.00 0.00 0.00 1010.5
20260905005503 77 225 4.0 10.0 0.00 0.00 0.00 1010.5
20260905005024 78 210 4.0 8.0 0.00 0.00 0.00 1011.2
20260905004503 77 237 4.0 9.0 0.00 0.00 0.00 1011.2
20260905004003 78 230 5.0 10.0 0.00 0.00 0.00 1011.2
20260905003503 78 204 4.0 12.0 0.00 0.00 0.00 1011.5
20260905003024 78 198 3.0 12.0 0.00 0.00 0.00 1011.5
20260905002525 78 202 6.0 10.0 0.00 0.00 0.00 1011.5
20260905002002 78 187 6.0 11.0 0.00 0.00 0.00 1011.5
20260905001503 77 222 5.0 11.0 0.00 0.00 0.00 1011.5
20260905001003 78 234 7.0 9.0 0.00 0.00 0.00 1011.5
20260905000502 78 207 3.0 10.0 0.00 0.00 0.00 1011.9
20260905000002 78 216 6.0 10.0 0.00 0.00 0.00 1010.5
20260904235502 78 223 5.0 10.0 0.00 0.00 0.00 1011.2
20260904235002 78 237 6.0 10.0 0.00 0.00 0.00 1010.9
20260904234502 79 224 6.0 10.0 0.00 0.00 0.00 1010.9
20260904234002 80 204 6.0 13.0 0.00 0.00 0.00 1010.9
20260904233502 80 171 7.0 13.0 0.00 0.00 0.00 1010.5
20260904233003 80 214 6.0 12.0 0.00 0.00 0.00 1011.2
20260904232523 80 204 4.0 12.0 0.00 0.00 0.00 1011.2
20260904232002 79 201 5.0 12.0 0.00 0.00 0.00 1011.2
20260904231503 79 199 7.0 12.0 0.00 0.00 0.00 1011.5
20260904231025 78 227 6.0 13.0 0.00 0.00 0.00 1011.5
20260904230504 79 230 8.0 13.0 0.00 0.00 0.00 1011.2
20260904230003 79 220 6.0 11.0 0.00 0.00 0.00 1010.9
20260904225504 79 212 5.0 13.0 0.00 0.00 0.00 1010.9
20260904225003 78 222 6.0 13.0 0.00 0.00 0.00 1010.9
20260904224503 79 220 8.0 13.0 0.00 0.00 0.00 1010.9
20260904224003 79 206 7.0 14.0 0.00 0.00 0.00 1011.2
20260904223523 79 225 7.0 16.0 0.00 0.00 0.00 1011.2
20260904223002 79 228 8.0 16.0 0.00 0.00 0.00 1011.9
20260904222503 80 231 7.0 12.0 0.00 0.00 0.00 1012.2
20260904222003 79 211 6.0 15.0 0.00 0.00 0.00 1011.5
20260904221524 80 223 8.0 15.0 0.00 0.00 0.00 1011.2
20260904221023 80 212 6.0 13.0 0.00 0.00 0.00 1011.5
20260904220502 81 207 4.0 10.0 0.00 0.00 0.00 1011.5
20260904220003 80 214 5.0 10.0 0.00 0.00 0.00 1011.5
20260904215503 80 202 5.0 10.0 0.00 0.00 0.00 1011.5
20260904215023 80 223 5.0 12.0 0.00 0.00 0.00 1011.9
20260904214502 80 210 6.0 12.0 0.00 0.00 0.00 1011.9
20260904214002 80 189 4.0 11.0 0.00 0.00 0.00 1011.9
20260904213502 80 223 5.0 11.0 0.00 0.00 0.00 1011.2
20260904213003 81 167 5.0 11.0 0.00 0.00 0.00 1011.9
20260904212502 81 179 5.0 10.0 0.00 0.00 0.00 1012.2
20260904212025 81 165 5.0 11.0 0.00 0.00 0.00 1012.2
20260904211502 80 163 4.0 11.0 0.00 0.00 0.00 1012.2
20260904211002 80 168 5.0 12.0 0.00 0.00 0.00 1012.2
20260904210503 80 235 7.0 12.0 0.00 0.00 0.00 1011.5
20260904210004 81 202 4.0 10.0 0.00 0.00 0.00 1011.5
20260904205502 80 192 5.0 10.0 0.00 0.00 0.00 1011.2
20260904205002 80 221 5.0 10.0 0.00 0.00 0.00 1011.2
20260904204504 80 186 5.0 11.0 0.00 0.00 0.00 1011.5
20260904204025 80 212 4.0 12.0 0.00 0.00 0.00 1011.9
20260904203503 80 210 5.0 12.0 0.00 0.00 0.00 1011.5
20260904203002 80 215 5.0 9.0 0.00 0.00 0.00 1011.2
20260904202503 80 210 3.0 13.0 0.00 0.00 0.00 1011.9
20260904202024 80 194 4.0 13.0 0.00 0.00 0.00 1011.2
20260904201504 79 170 6.0 11.0 0.00 0.00 0.00 1011.2
20260904201024 79 227 6.0 11.0 0.00 0.00 0.00 1011.9
20260904200504 79 222 6.0 10.0 0.00 0.00 0.00 1011.5
20260904200002 79 348 2.0 8.0 0.00 0.00 0.00 1011.5
20260904195503 79 186 4.0 9.0 0.00 0.00 0.00 1011.5
20260904195003 78 182 5.0 10.0 0.00 0.00 0.00 1011.5
20260904194503 79 212 6.0 10.0 0.00 0.00 0.00 1012.2
20260904194003 79 210 5.0 10.0 0.00 0.00 0.00 1011.9
20260904193524 78 205 4.0 10.0 0.00 0.00 0.00 1011.9
20260904193002 78 230 6.0 10.0 0.00 0.00 0.00 1011.5
20260904192503 78 210 4.0 8.0 0.00 0.00 0.00 1011.5
20260904192003 78 146 3.0 7.0 0.00 0.00 0.00 1011.9
20260904191503 77 63 3.0 10.0 0.00 0.00 0.00 1012.6
20260904191025 76 233 5.0 11.0 0.00 0.00 0.00 1012.6
20260904190504 77 223 5.0 11.0 0.00 0.00 0.00 1012.6
20260904190002 77 178 5.0 12.0 0.00 0.00 0.00 1012.6
20260904185503 76 166 6.0 12.0 0.00 0.00 0.00 1013.2
20260904185002 76 220 4.0 12.0 0.00 0.00 0.00 1012.9
20260904184503 76 211 6.0 12.0 0.00 0.00 0.00 1013.2
20260904184003 77 208 6.0 10.0 0.00 0.00 0.00 1013.9
20260904183503 76 111 3.0 10.0 0.00 0.00 0.00 1013.6
20260904183025 76 213 4.0 10.0 0.00 0.00 0.00 1013.9
20260904182503 76 161 5.0 10.0 0.00 0.00 0.00 1013.9
20260904182002 76 176 6.0 11.0 0.00 0.00 0.00 1013.9
20260904181524 75 218 6.0 11.0 0.00 0.00 0.00 1013.6
20260904181003 74 173 5.0 9.0 0.00 0.00 0.00 1013.6
20260904180502 74 263 3.0 9.0 0.00 0.00 0.00 1013.9
20260904180003 75 188 4.0 9.0 0.00 0.00 0.00 1014.3
20260904175504 74 217 3.0 6.0 0.00 0.00 0.00 1013.6
20260904175004 74 6 2.0 4.0 0.00 0.00 0.00 1013.6
20260904174503 74 48 1.0 7.0 0.00 0.00 0.00 1013.9
20260904174003 75 95 3.0 8.0 0.00 0.00 0.00 1013.9
20260904173503 74 141 3.0 8.0 0.00 0.00 0.00 1013.9
20260904173025 72 113 3.0 6.0 0.00 0.00 0.00 1013.6
20260904172503 72 260 2.0 6.0 0.00 0.00 0.00 1013.6
20260904172024 73 233 3.0 6.0 0.00 0.00 0.00 1013.9
20260904171504 72 241 4.0 7.0 0.00 0.00 0.00 1013.6
20260904171003 72 208 3.0 7.0 0.00 0.00 0.00 1013.2
20260904170502 73 231 2.0 6.0 0.00 0.00 0.00 1013.6
20260904170003 72 164 3.0 6.0 0.00 0.00 0.00 1013.2
20260904165524 71 203 2.0 7.0 0.00 0.00 0.00 1013.2
20260904165002 71 186 3.0 7.0 0.00 0.00 0.00 1012.9
20260904164504 70 287 2.0 4.0 0.00 0.00 0.00 1012.9
20260904164003 71 85 2.0 5.0 0.00 0.00 0.00 1012.9
20260904163503 70 153 3.0 5.0 0.00 0.00 0.00 1013.2
20260904163003 70 298 1.0 4.0 0.00 0.00 0.00 1012.9
20260904162502 70 301 2.0 6.0 0.00 0.00 0.00 1012.6
20260904162003 70 50 3.0 7.0 0.00 0.00 0.00 1012.9
20260904161504 70 110 4.0 7.0 0.00 0.00 0.00 1012.9
20260904161003 70 54 2.0 6.0 0.00 0.00 0.00 1012.2
20260904160503 69 88 2.0 5.0 0.00 0.00 0.00 1012.2
20260904160003 69 22 2.0 5.0 0.00 0.00 0.00 1012.6
20260904155503 69 26 1.0 6.0 0.00 0.00 0.00 1012.6
20260904155003 69 34 3.0 6.0 0.00 0.00 0.00 1012.6
20260904154503 69 74 3.0 6.0 0.00 0.00 0.00 1013.2
20260904154003 68 71 3.0 5.0 0.00 0.00 0.00 1012.9
20260904153502 68 100 2.0 4.0 0.00 0.00 0.00 1012.2
20260904153025 67 92 2.0 5.0 0.00 0.00 0.00 1012.2
20260904152502 67 101 2.0 5.0 0.00 0.00 0.00 1012.9
20260904152024 67 102 2.0 5.0 0.00 0.00 0.00 1012.9
20260904151503 66 108 3.0 6.0 0.00 0.00 0.00 1013.2
20260904151024 66 109 2.0 7.0 0.00 0.00 0.00 1012.2
20260904150503 66 116 4.0 7.0 0.00 0.00 0.00 1012.6
20260904150024 65 100 3.0 7.0 0.00 0.00 0.00 1012.9
20260904145504 65 76 3.0 9.0 0.00 0.00 0.00 1012.2
20260904145002 65 84 4.0 9.0 0.00 0.00 0.00 1012.9
20260904144503 64 103 4.0 7.0 0.00 0.00 0.00 1012.2
20260904144024 64 98 4.0 7.0 0.00 0.00 0.00 1012.2
20260904143524 64 87 4.0 7.0 0.00 0.00 0.00 1012.6
20260904143002 64 88 3.0 7.0 0.00 0.00 0.00 1012.9
20260904142525 64 90 2.0 5.0 0.00 0.00 0.00 1013.2
20260904142004 64 109 2.0 5.0 0.00 0.00 0.00 1012.6
20260904141502 64 90 2.0 5.0 0.00 0.00 0.00 1012.9
20260904141003 63 86 3.0 5.0 0.00 0.00 0.00 1012.6
20260904140525 63 95 2.0 4.0 0.00 0.00 0.00 1011.9
20260904140024 63 86 2.0 4.0 0.00 0.00 0.00 1012.9
20260904135503 63 86 2.0 4.0 0.00 0.00 0.00 1012.2
20260904135003 63 64 2.0 3.0 0.00 0.00 0.00 1012.2
20260904134502 63 61 1.0 3.0 0.00 0.00 0.00 1012.2
20260904134003 63 79 1.0 3.0 0.00 0.00 0.00 1011.9
20260904133502 63 95 2.0 3.0 0.00 0.00 0.00 1012.2
20260904133003 63 77 2.0 4.0 0.00 0.00 0.00 1011.9
20260904132524 63 53 2.0 4.0 0.00 0.00 0.00 1012.2
20260904132024 63 64 2.0 5.0 0.00 0.00 0.00 1012.2
20260904131525 63 77 3.0 5.0 0.00 0.00 0.00 1011.9
20260904131003 63 66 2.0 4.0 0.00 0.00 0.00 1011.9
20260904130504 63 78 2.0 4.0 0.00 0.00 0.00 1012.2
20260904130003 64 79 2.0 4.0 0.00 0.00 0.00 1011.9
20260904125503 64 88 3.0 4.0 0.00 0.00 0.00 1012.2
20260904125002 64 85 2.0 4.0 0.00 0.00 0.00 1012.6
20260904124503 64 88 2.0 4.0 0.00 0.00 0.00 1012.6
20260904124002 64 88 3.0 4.0 0.00 0.00 0.00 1012.2
20260904123503 64 87 2.0 4.0 0.00 0.00 0.00 1012.6
20260904123002 64 75 2.0 4.0 0.00 0.00 0.00 1012.2
20260904122503 64 69 2.0 4.0 0.00 0.00 0.00 1012.6
20260904122003 64 92 2.0 3.0 0.00 0.00 0.00 1012.6
20260904121525 64 84 2.0 3.0 0.00 0.00 0.00 1012.6
20260904121024 64 90 2.0 3.0 0.00 0.00 0.00 1012.6
20260904120503 64 106 2.0 3.0 0.00 0.00 0.00 1012.2
20260904120003 63 113 2.0 3.0 0.00 0.00 0.00 1011.2
20260904115504 64 109 2.0 3.0 0.00 0.00 0.00 1011.9
20260904115002 64 113 2.0 3.0 0.00 0.00 0.00 1011.5
20260904114503 64 115 1.0 3.0 0.00 0.00 0.00 1011.9
20260904114002 64 108 2.0 3.0 0.00 0.00 0.00 1012.6
20260904113503 64 102 2.0 3.0 0.00 0.00 0.00 1012.2
20260904113024 64 135 1.0 3.0 0.00 0.00 0.00 1011.9
20260904112503 64 89 1.0 3.0 0.00 0.00 0.00 1012.6
20260904112004 64 95 2.0 3.0 0.00 0.00 0.00 1012.2
20260904111502 64 111 1.0 3.0 0.00 0.00 0.00 1011.9
20260904111003 64 109 2.0 4.0 0.00 0.00 0.00 1012.2
20260904110502 64 93 2.0 4.0 0.00 0.00 0.00 1012.6
20260904110003 64 84 2.0 5.0 0.00 0.00 0.00 1012.2
20260904105524 64 81 2.0 5.0 0.00 0.00 0.00 1012.2
20260904105003 64 88 2.0 3.0 0.00 0.00 0.00 1012.6
20260904104504 64 90 2.0 3.0 0.00 0.00 0.00 1012.6
20260904104003 64 97 2.0 3.0 0.00 0.00 0.00 1012.2
20260904103503 64 90 1.0 5.0 0.00 0.00 0.00 1012.2
20260904103003 64 88 3.0 5.0 0.00 0.00 0.00 1011.9
20260904102503 64 91 2.0 4.0 0.00 0.00 0.00 1012.2
20260904102003 64 86 2.0 4.0 0.00 0.00 0.00 1011.9
20260904101502 64 87 2.0 3.0 0.00 0.00 0.00 1012.6
20260904101003 64 104 1.0 3.0 0.00 0.00 0.00 1012.6
20260904100524 64 90 2.0 3.0 0.00 0.00 0.00 1012.6
20260904100003 65 87 2.0 3.0 0.00 0.00 0.00 1012.6
20260904095504 65 90 1.0 2.0 0.00 0.00 0.00 1012.2
20260904095004 65 80 1.0 2.0 0.00 0.00 0.00 1012.2
20260904094503 65 89 1.0 2.0 0.00 0.00 0.00 1011.9
20260904094003 65 96 1.0 2.0 0.00 0.00 0.00 1012.2